Powrót do katalogu

SL-14 DEB

AktywnyPO
NORAD 26008·DEBRIS·🇷🇺 Russia

Wystrzelony Sep 28, 1991 z Plesetsk Cosmodrome

Loading…

Następne Przeloty (najbliższe 24 godziny)

TLE

ŚwieżeSource: Space-Track

Epoka: Sep 14, 2026, 15:54 UTC

1 26008U 91068T   26257.66308190  .00000041  00000-0  16918-3 0  9998
2 26008  82.6330 332.2571 0090529 234.0053 294.7052 12.63154549241573

Śledź SL-14 DEB w czasie rzeczywistym z AllMySat

Download on the App Store